CE3MLB Weather Reports


time (UTC)temp
C
wind
direction
speed
KPH
gust
KPH
rain 1hr
cm
rain 24hr
cm
rain mn
cm
humidity
%
barometer
mb
20260507140137 15 276 1.6 3.2 0.00 0.00 0.00 81 1013.2
20260507130134 11 323 0.0 0.0 0.00 0.00 0.00 99 1013.4
20260507120130 6 318 0.0 0.0 0.00 0.00 0.00 99 1012.7
20260507110126 6 313 0.0 0.0 0.00 0.00 0.00 99 1012.3
20260507100121 6 313 0.0 0.0 0.00 0.00 0.00 99 1011.6
20260507090119 6 313 0.0 0.0 0.00 0.00 0.00 99 1011.0
20260507080114 7 316 0.0 0.0 0.00 0.00 0.00 99 1010.6
20260507070114 8 322 0.0 0.0 0.00 0.00 0.00 99 1010.5
20260507060110 8 316 0.0 0.0 0.00 0.00 0.00 99 1010.6
20260507050108 10 310 0.0 0.0 0.00 0.00 0.00 99 1010.5
20260507040108 10 316 0.0 0.0 0.00 0.00 0.00 99 1010.3
20260507030107 10 341 1.6 1.6 0.00 1.09 1.09 99 1009.9
20260507010058 11 312 0.0 0.0 0.00 1.09 1.09 99 1009.3
20260507000057 12 14 0.0 1.6 0.00 1.09 1.09 97 1009.0
20260506230056 12 309 0.0 0.0 0.00 1.09 1.09 99 1008.4
20260506220057 12 320 0.0 1.6 0.00 1.09 1.09 99 1007.5
20260506210052 13 312 0.0 1.6 0.00 1.09 1.09 99 1006.9
20260506200050 14 313 0.0 0.0 0.00 1.09 1.09 99 1007.0
20260506190047 15 310 1.6 3.2 0.00 1.09 1.09 99 1006.4
20260506180046 15 315 0.0 0.0 0.13 1.09 1.09 99 1006.0
20260506170041 14 316 0.0 0.0 0.00 0.81 0.81 99 1005.9
20260506160039 13 314 0.0 0.0 0.13 0.76 0.76 99 1005.5
20260506150040 12 316 0.0 0.0 0.61 0.58 0.58 99 1004.9